Flag for U.S.A. Weather past 2 weeks in Sunrise Manor, Nevada, U.S.A.

Now
90 °F

Passing clouds.


Feels Like: 89 °F
Forecast: 87 / 105 °F
Wind: 16 mph from Southeast

Location: Nellis Air Force Base

Current Time: Jul 2, 2015 at 3:05:18 AM

Latest Report: Jul 2, 2015 at 1:58 AM


Visibility: 10 mi

Pressure: 29.90 "Hg

Humidity: 37%

Dew point: 60 °F

Location of Sunrise ManorLocation

Historic Weather in Sunrise Manor — Graph

°F

Sunrise Manor temperature yesterday

Maximum temperature yesterday: 105 °F (at 4:58 PM)
Minimum temperature yesterday: 88 °F (at 3:58 AM)
Average temperature yesterday: 97 °F

Past Weeks' High & Low Weather Summary

 TemperatureHumidityPressure
High111 °F (Jun 20, 4:58 PM)45% (Jul 1, 8:58 PM)29.90 "Hg (Jul 1, 8:58 PM)
Low75 °F (Jun 24, 4:58 AM)2% (Jun 17, 4:55 PM)29.58 "Hg (Jun 20, 5:58 PM)
Average97 °F12%29.73 "Hg
* Reported Jun 17 1:58 AM — Jul 2 1:58 AM, Sunrise Manor, Weather by CustomWeather, © 2015

Note: Actual official high and low records may vary slightly from our data, if they occured in-between our weather recording intervals... More about our weather records

Advertising

Sunrise Manor weather history for previous 24 hours

 ConditionsComfort  
Time TempWeatherWind HumidityBarometerVisibility
1:58 AM
Thu, Jul 2
90 °FPassing clouds.16 mph37%29.90 "Hg10 mi
12:58 AM90 °FPartly cloudy.15 mph34%29.88 "Hg10 mi
11:58 PM
Wed, Jul 1
90 °FPassing clouds.12 mph32%29.77 "Hg10 mi
10:58 PM93 °FOvercast.13 mph31%29.75 "Hg10 mi
9:58 PM93 °FClear.16 mph33%29.72 "Hg10 mi
8:58 PM93 °FSunny.2 mph45%29.69 "Hg10 mi
7:58 PM103 °FThunderstorms. Sunny.22 mph22%29.69 "Hg10 mi
6:58 PM103 °FSunny.16 mph22%29.66 "Hg10 mi
5:58 PM105 °FSunny.14 mph21%29.64 "Hg10 mi
4:58 PM105 °FSunny.7 mph20%29.65 "Hg10 mi
3:58 PM105 °FSunny.6 mph20%29.67 "Hg10 mi
2:58 PM105 °FSunny.7 mph20%29.71 "Hg10 mi
2:55 PM105 °FSunny.8 mph20%29.70 "Hg10 mi
1:55 PM105 °FSunny.7 mph20%29.70 "Hg10 mi
12:58 PM99 °FSunny.3 mph25%29.77 "Hg10 mi
11:58 AM99 °FSunny.3 mph25%29.77 "Hg10 mi
10:58 AM98 °FSunny.8 mph26%29.79 "Hg10 mi
9:58 AM97 °FSunny.9 mph27%29.79 "Hg10 mi
8:58 AM98 °FSunny.13 mph26%29.87 "Hg10 mi
7:58 AM93 °FSunny.14 mph29%29.88 "Hg10 mi
6:58 AM91 °FSunny.15 mph32%29.79 "Hg10 mi
5:58 AM90 °FClear.16 mph32%29.78 "Hg10 mi
4:58 AM90 °FPassing clouds.21 mph35%29.78 "Hg10 mi
3:58 AM88 °FPassing clouds.20 mph40%29.77 "Hg10 mi
3:03 AM90 °FPassing clouds.24 mph41%29.81 "Hg2 mi
Weather by CustomWeather, © 2015

See weather overviewHow to use our weather pages